To NAV CANADA Home Page Login to a new session Search on AWWS site Feedback and Comments Disclaimer Vers la page française équivalente Tips FAQ What's new on the site To the Forecasts and Observations / NOTAM section To "File a Flight Plan" website Publications and other links Update of the User's profile FIC Telephone Numbers My Weather Data Folder Route Weather Data Regional Weather Data Local Weather Data To the Forecasts and Observations / NOTAM section
Request Generated 03/03/2015 at 20:16:00 UTC . Weather information available at that time is displayed.

METAR/TAF

AUPALUK/QC    

METAR CYLA 032000Z 25005KT 15SM FEW085 M29/M34 A2985 RMK AC1 SLP114=
METAR CYLA 031900Z 25010KT 15SM FEW080 M29/M33 A2985 RMK AC1 VIA ZNB FIC SLP113=
METAR CYLA 031800Z 23010KT 15SM FEW080 M29/M33 A2986 RMK AC1 SLP117=

CYLA - No TAF is issued for this station

Your time UTC time
Weather data provided by Environment Canada and NAV CANADA